TimeMDT,TemperatureF,Dew PointF,Humidity,Sea Level PressureIn,VisibilityMPH,Wind Direction,Wind SpeedMPH,Gust SpeedMPH,PrecipitationIn,Events,Conditions,WindDirDegrees,DateUTC
12:56 AM,66.0,55.0,68,30.08,10.0,South,6.9,-,N/A,,Clear,170,2013-07-02 06:56:00
1:56 AM,64.0,55.0,73,30.08,10.0,South,8.1,-,N/A,,Clear,180,2013-07-02 07:56:00
2:56 AM,64.0,55.0,73,30.06,10.0,SE,6.9,-,N/A,,Clear,140,2013-07-02 08:56:00
3:56 AM,63.0,55.0,75,30.05,10.0,ESE,5.8,-,N/A,,Clear,120,2013-07-02 09:56:00
4:56 AM,64.0,55.0,73,30.04,10.0,SE,5.8,-,N/A,,Clear,130,2013-07-02 10:56:00
5:56 AM,62.1,55.0,78,30.04,10.0,SE,5.8,-,N/A,,Clear,140,2013-07-02 11:56:00
6:56 AM,63.0,55.9,78,30.04,10.0,Calm,Calm,-,N/A,,Clear,0,2013-07-02 12:56:00
7:56 AM,66.0,57.0,73,30.03,10.0,South,3.5,-,N/A,,Clear,190,2013-07-02 13:56:00
8:56 AM,70.0,59.0,68,30.03,10.0,South,3.5,-,N/A,,Clear,180,2013-07-02 14:56:00
9:56 AM,75.9,59.0,56,30.01,10.0,SE,5.8,-,N/A,,Clear,130,2013-07-02 15:56:00
10:56 AM,80.1,59.0,48,30.00,10.0,SSE,8.1,-,N/A,,Clear,150,2013-07-02 16:56:00
11:56 AM,84.0,61.0,46,29.99,10.0,SSE,10.4,-,N/A,,Clear,160,2013-07-02 17:56:00
12:56 PM,87.1,59.0,39,29.98,10.0,Calm,Calm,-,N/A,,Clear,0,2013-07-02 18:56:00
1:56 PM,91.9,57.9,32,29.96,10.0,Variable,4.6,-,N/A,,Clear,0,2013-07-02 19:56:00
2:56 PM,93.0,57.0,30,29.94,10.0,SSE,5.8,-,N/A,,Clear,150,2013-07-02 20:56:00
3:56 PM,95.0,53.1,24,29.91,10.0,Variable,4.6,-,N/A,,Clear,0,2013-07-02 21:56:00
4:56 PM,95.0,52.0,23,29.89,10.0,Calm,Calm,-,N/A,,Clear,0,2013-07-02 22:56:00
5:56 PM,93.9,55.9,28,29.87,10.0,South,4.6,-,N/A,,Clear,180,2013-07-02 23:56:00
6:56 PM,91.9,54.0,27,29.86,10.0,WSW,10.4,-,N/A,,Clear,250,2013-07-03 00:56:00
7:56 PM,88.0,57.9,36,29.84,10.0,WNW,6.9,-,N/A,,Clear,290,2013-07-03 01:56:00
8:56 PM,80.1,60.1,50,29.84,10.0,West,4.6,-,N/A,,Clear,280,2013-07-03 02:56:00
9:56 PM,81.0,55.0,41,29.83,10.0,West,13.8,-,N/A,,Clear,260,2013-07-03 03:56:00
10:56 PM,78.1,54.0,43,29.83,10.0,WSW,12.7,-,N/A,,Clear,250,2013-07-03 04:56:00
11:56 PM,75.9,54.0,46,29.82,10.0,WSW,11.5,-,N/A,,Clear,250,2013-07-03 05:56:00